Home > Weather > Knoxville > Past weeks

Flag for USA Past Weather in Knoxville, Tennessee, USA — Yesterday and Last 2 Weeks

Now
75 °F

Mostly cloudy.


Feels Like: 74 °F
Forecast: 72 / 85 °F
Wind: 5 mph from West

Location: McGhee Tyson Airport

Current Time: Jul 29, 2016 at 12:02:27 AM

Latest Report: Jul 28, 2016 at 10:53 PM


Visibility: 10 mi

Pressure: 29.93 "Hg

Humidity: 88%

Dew Point: 71 °F

Location of KnoxvilleLocation

Past Weather in Knoxville — Graph

°F

Knoxville Temperature Yesterday

Maximum temperature yesterday: 87 °F (at 1:53 PM)
Minimum temperature yesterday: 74 °F (at 9:53 PM)
Average temperature yesterday: 80 °F

High & Low Weather Summary for the Past Weeks

 TemperatureHumidityPressure
High97 °F (Jul 25, 3:53 PM)96% (Jul 17, 7:01 AM)30.24 "Hg (Jul 17, 7:01 AM)
Low68 °F (Jul 17, 7:01 AM)32% (Jul 20, 6:53 PM)29.86 "Hg (Jul 28, 4:53 PM)
Average82 °F67%30.04 "Hg
* Reported Jul 13 10:53 PM — Jul 28 10:53 PM, Knoxville, Weather by CustomWeather, © 2016

Note: Actual official high and low records may vary slightly from our data, if they occured in-between our weather recording intervals... More about our weather records

Advertising

Knoxville Weather History for the Previous 24 Hours

Scroll right to see more
 ConditionsComfort  
Time TempWeatherWind HumidityBarometerVisibility
10:53 PM
Thu, Jul 28
75 °FMostly cloudy.5 mph88%29.93 "Hg10 mi
9:53 PM74 °FPartly cloudy.7 mph88%29.93 "Hg10 mi
8:53 PM77 °FPartly sunny.9 mph77%29.91 "Hg10 mi
7:53 PM79 °FMostly cloudy.13 mph74%29.89 "Hg10 mi
6:53 PM79 °FMostly cloudy.20 mph77%29.88 "Hg10 mi
5:53 PM79 °FMostly cloudy.15 mph82%29.87 "Hg10 mi
4:53 PM84 °FPartly sunny.16 mph61%29.86 "Hg10 mi
3:53 PM85 °FBroken clouds.17 mph59%29.87 "Hg10 mi
2:53 PM83 °FLight rain. Mostly cloudy.26 mph61%29.89 "Hg10 mi
1:53 PM87 °FBroken clouds.21 mph51%29.90 "Hg10 mi
12:53 PM85 °FBroken clouds.20 mph57%29.92 "Hg10 mi
11:53 AM84 °FBroken clouds.22 mph59%29.93 "Hg10 mi
10:53 AM83 °FMore clouds than sun.16 mph61%29.93 "Hg9 mi
9:53 AM82 °FBroken clouds.14 mph67%29.94 "Hg8 mi
8:53 AM80 °FPartly sunny.16 mph69%29.94 "Hg10 mi
7:53 AM78 °FBroken clouds.8 mph74%29.94 "Hg10 mi
6:53 AM77 °FPartly cloudy.6 mph77%29.94 "Hg10 mi
5:53 AM76 °FPassing clouds.7 mph80%29.94 "Hg10 mi
4:53 AM77 °FPassing clouds.12 mph74%29.94 "Hg10 mi
3:53 AM78 °FClear.12 mph71%29.94 "Hg10 mi
2:53 AM79 °FPassing clouds.12 mph72%29.95 "Hg10 mi
1:53 AM81 °FPassing clouds.12 mph69%29.96 "Hg10 mi
12:53 AM82 °FClear.8 mph70%29.97 "Hg10 mi
Weather by CustomWeather, © 2016

See weather overviewHow to use our weather pages